TITAN 3C TRANSTAGE DEB

基本信息
目录编号:
38690
目录名称:
TITAN 3C TRANSTAGE DEB
国际标识:
1968-081Q
轨道中心:
EARTH
物体状态:
在轨
发射日期:
1968-09-26 UTC
轨道信息
数据来源: 国际轨道数据
星历时间: 2026-07-14T04:26:02+0800
半长轴: 42430.463km
偏心率: 0.0249485
轨道倾角: 1.903°
近地点辐角: 326.427°
升交点赤经: 22.039°
平近点角: 32.184°
近地点: 34993.749km
远地点: 37110.903km
周期: 1449.694分钟
每日圈数: 0.993313
详细信息
发射场:
AFETR
轨道高度:
MEO
数据来源:
AOE Integration Group
参考系:
TEME
时间系统:
UTC
历元类型:
SGP4
2D轨道图
3D轨道图
轨道高度分析图
轨道倾角分析图
轨道综合分析图
查看轨道综合分析图